Total_Precipitation_Accumulation
0.01 0.01 0.02 0.02 0.03 0.03 0.04 0.05 0.07 0.08 0.09 0.09 0.09 0.09 0.11 0.13 0.15 0.18 0.22 0.24 0.25 0.24 0.24 0.24 0.24 0.23 0.22 0.20 0.17 0.14 0.11 0.11 0.09 0.03 0.02 0.03 0.06 0.09 0.12 0.13 0.14 0.12 0.09
0.03 0.03 0.04 0.04 0.06 0.09 0.11 0.12 0.13 0.14 0.14 0.14 0.13 0.12 0.12 0.11 0.13 0.15 0.17 0.20 0.22 0.24 0.26 0.27 0.28 0.28 0.28 0.27 0.25 0.21 0.17 0.14 0.13 0.08 0.03 0.03 0.06 0.09 0.12 0.12 0.10 0.09 0.07
0.04 0.05 0.06 0.09 0.12 0.16 0.19 0.20 0.20 0.20 0.19 0.19 0.19 0.18 0.18 0.18 0.19 0.19 0.19 0.18 0.19 0.20 0.21 0.24 0.28 0.31 0.32 0.31 0.30 0.27 0.25 0.19 0.15 0.12 0.07 0.05 0.06 0.09 0.12 0.11 0.10 0.10 0.08
0.09 0.11 0.14 0.18 0.22 0.25 0.26 0.25 0.23 0.23 0.24 0.24 0.24 0.25 0.26 0.29 0.30 0.30 0.28 0.24 0.22 0.23 0.23 0.24 0.26 0.28 0.30 0.32 0.33 0.31 0.29 0.27 0.23 0.17 0.12 0.09 0.08 0.10 0.13 0.14 0.13 0.13 0.14
0.20 0.23 0.23 0.22 0.22 0.22 0.22 0.22 0.23 0.25 0.26 0.26 0.24 0.25 0.29 0.34 0.39 0.38 0.33 0.25 0.25 0.26 0.27 0.27 0.28 0.30 0.34 0.33 0.33 0.32 0.31 0.29 0.26 0.23 0.18 0.13 0.09 0.11 0.15 0.15 0.14 0.12 0.13
0.27 0.27 0.25 0.22 0.21 0.21 0.21 0.22 0.23 0.23 0.21 0.18 0.17 0.20 0.27 0.35 0.44 0.42 0.31 0.21 0.22 0.25 0.27 0.26 0.25 0.28 0.31 0.36 0.36 0.31 0.31 0.31 0.30 0.27 0.24 0.19 0.14 0.13 0.15 0.19 0.19 0.16 0.11
0.28 0.28 0.26 0.24 0.23 0.21 0.20 0.18 0.17 0.16 0.13 0.10 0.09 0.10 0.15 0.24 0.34 0.35 0.26 0.13 0.12 0.14 0.15 0.15 0.15 0.17 0.18 0.20 0.20 0.19 0.21 0.26 0.31 0.31 0.32 0.28 0.21 0.16 0.16 0.21 0.24 0.21 0.14
0.25 0.23 0.19 0.16 0.15 0.14 0.13 0.12 0.10 0.09 0.08 0.06 0.04 0.04 0.04 0.07 0.16 0.28 0.21 0.06 0.06 0.07 0.08 0.08 0.08 0.08 0.09 0.10 0.11 0.12 0.15 0.19 0.26 0.31 0.34 0.34 0.30 0.23 0.19 0.20 0.26 0.27 0.21
0.15 0.12 0.09 0.07 0.07 0.08 0.08 0.07 0.04 0.03 0.03 0.02 0.01 0.01 0.01 0.01 0.06 0.21 0.23 0.05 0.04 0.06 0.06 0.06 0.05 0.05 0.06 0.05 0.07 0.11 0.12 0.14 0.18 0.25 0.29 0.28 0.27 0.26 0.24 0.22 0.23 0.28 0.28
0.07 0.05 0.03 0.02 0.03 0.03 0.03 0.02 0.01 0.01 0.01 0.00 0.00 0.00 0.00 0.00 0.03 0.16 0.29 0.09 0.04 0.04 0.06 0.06 0.09 0.08 0.05 0.03 0.03 0.06 0.08 0.10 0.11 0.12 0.13 0.13 0.11 0.10 0.13 0.19 0.23 0.24 0.25
0.02 0.01 0.00 0.00 0.00 0.01 0.00 0.00 0.01 0.00 0.00 0.00 0.00 0.00 0.00 0.00 0.01 0.09 0.30 0.23 0.08 0.03 0.04 0.05 0.08 0.09 0.05 0.04 0.03 0.03 0.05 0.05 0.05 0.06 0.07 0.08 0.07 0.07 0.09 0.12 0.16 0.19 0.19
0.00 0.00 0.00 0.00 0.00 0.00 0.00 0.00 0.00 0.00 0.00 0.00 0.00 0.00 0.00 0.00 0.01 0.06 0.17 0.24 0.17 0.03 0.03 0.06 0.09 0.09 0.06 0.04 0.02 0.02 0.02 0.01 0.01 0.02 0.03 0.04 0.05 0.05 0.06 0.08 0.10 0.11 0.13
0.00 0.00 0.00 0.00 0.00 0.00 0.00 0.00 0.00 0.00 0.00 0.01 0.01 0.01 0.00 0.00 0.00 0.05 0.08 0.07 0.09 0.06 0.09 0.18 0.13 0.06 0.03 0.03 0.01 0.00 0.00 0.00 0.00 0.01 0.01 0.02 0.02 0.03 0.03 0.04 0.05 0.06 0.07
0.00 0.00 0.00 0.00 0.00 0.00 0.00 0.00 0.01 0.01 0.04 0.08 0.07 0.04 0.02 0.01 0.03 0.11 0.10 0.04 0.04 0.05 0.07 0.15 0.12 0.04 0.01 0.00 0.00 0.00 0.00 0.00 0.00 0.01 0.01 0.01 0.00 0.01 0.01 0.01 0.03 0.04 0.06
0.00 0.00 0.00 0.00 0.00 0.00 0.00 0.00 0.01 0.02 0.08 0.17 0.13 0.09 0.07 0.06 0.14 0.24 0.20 0.14 0.14 0.12 0.07 0.06 0.04 0.02 0.01 0.00 0.00 0.00 0.00 0.00 0.00 0.00 0.01 0.01 0.01 0.01 0.00 0.01 0.02 0.04 0.07
0.00 0.00 0.00 0.01 0.00 0.01 0.01 0.01 0.01 0.02 0.05 0.06 0.07 0.09 0.09 0.13 0.20 0.19 0.15 0.13 0.14 0.12 0.06 0.05 0.04 0.03 0.01 0.01 0.00 0.00 0.00 0.00 0.00 0.01 0.01 0.01 0.01 0.01 0.01 0.01 0.02 0.05 0.07
0.01 0.01 0.01 0.01 0.01 0.01 0.01 0.02 0.02 0.01 0.01 0.01 0.02 0.05 0.08 0.13 0.15 0.13 0.13 0.09 0.07 0.05 0.02 0.02 0.02 0.01 0.01 0.00 0.00 0.00 0.00 0.00 0.00 0.01 0.01 0.01 0.02 0.02 0.02 0.02 0.03 0.06 0.09
0.00 0.01 0.02 0.02 0.02 0.03 0.03 0.03 0.03 0.03 0.02 0.01 0.00 0.02 0.04 0.07 0.09 0.09 0.08 0.05 0.03 0.02 0.01 0.01 0.00 0.00 0.00 0.00 0.00 0.00 0.00 0.00 0.00 0.01 0.01 0.01 0.02 0.04 0.04 0.04 0.05 0.09 0.12
0.00 0.01 0.03 0.03 0.03 0.03 0.04 0.04 0.03 0.02 0.02 0.01 0.00 0.00 0.01 0.02 0.02 0.02 0.03 0.02 0.01 0.01 0.00 0.00 0.00 0.00 0.00 0.00 0.00 0.00 0.00 0.00 0.00 0.01 0.01 0.01 0.02 0.04 0.04 0.04 0.06 0.10 0.16
0.00 0.01 0.03 0.03 0.03 0.03 0.03 0.03 0.03 0.03 0.03 0.02 0.01 0.01 0.02 0.02 0.01 0.01 0.01 0.00 0.00 0.00 0.00 0.00 0.00 0.00 0.00 0.00 0.00 0.00 0.00 0.00 0.00 0.01 0.01 0.01 0.02 0.04 0.05 0.06 0.08 0.11 0.15
0.01 0.01 0.02 0.02 0.02 0.03 0.04 0.04 0.04 0.04 0.03 0.03 0.02 0.03 0.10 0.09 0.03 0.01 0.00 0.00 0.00 0.00 0.00 0.00 0.00 0.00 0.00 0.00 0.00 0.00 0.00 0.00 0.00 0.01 0.01 0.02 0.03 0.05 0.06 0.08 0.09 0.11 0.14
0.02 0.03 0.03 0.03 0.03 0.03 0.05 0.04 0.03 0.04 0.03 0.03 0.01 0.01 0.04 0.03 0.01 0.00 0.00 0.00 0.00 0.00 0.00 0.00 0.00 0.00 0.00 0.00 0.00 0.00 0.00 0.00 0.01 0.01 0.02 0.02 0.04 0.06 0.08 0.10 0.12 0.15 0.17
0.05 0.04 0.03 0.02 0.01 0.02 0.02 0.01 0.02 0.03 0.03 0.02 0.02 0.02 0.01 0.01 0.00 0.00 0.00 0.00 0.00 0.00 0.00 0.00 0.00 0.00 0.00 0.00 0.00 0.00 0.01 0.01 0.03 0.04 0.05 0.06 0.06 0.08 0.11 0.13 0.15 0.17 0.19
0.04 0.02 0.01 0.01 0.01 0.02 0.02 0.02 0.03 0.03 0.03 0.03 0.03 0.02 0.02 0.01 0.01 0.00 0.00 0.00 0.00 0.01 0.01 0.01 0.01 0.01 0.00 0.00 0.00 0.00 0.01 0.04 0.09 0.11 0.11 0.12 0.11 0.11 0.13 0.15 0.17 0.18 0.21
0.01 0.01 0.01 0.02 0.03 0.03 0.04 0.03 0.03 0.04 0.04 0.04 0.03 0.03 0.02 0.01 0.01 0.01 0.01 0.01 0.01 0.01 0.01 0.01 0.01 0.00 0.00 0.00 0.00 0.00 0.03 0.08 0.13 0.20 0.25 0.26 0.21 0.17 0.18 0.20 0.20 0.21 0.24
0.01 0.01 0.02 0.03 0.04 0.05 0.06 0.07 0.06 0.06 0.07 0.06 0.05 0.04 0.03 0.02 0.02 0.02 0.01 0.02 0.02 0.02 0.01 0.01 0.00 0.00 0.00 0.00 0.00 0.01 0.07 0.17 0.28 0.38 0.44 0.44 0.34 0.25 0.21 0.22 0.22 0.23 0.25